RH
76 75 75 76 71 74 75 83 75 66 69 71 92 99 99 100 92 75 76 80 86 87 96 87 85 79 76
82 81 74 76 80 76 68 64 74 61 65 76 76 80 77 91 100 94 72 75 84 86 94 92 96 81 77
83 81 76 76 74 77 77 73 74 71 63 88 94 99 99 79 99 100 88 71 74 83 89 90 93 89 82
86 85 86 75 74 80 82 76 75 72 73 68 72 55 86 82 93 100 100 86 73 74 83 90 92 94 87
92 90 91 93 85 84 71 71 72 74 74 75 85 96 82 80 98 100 100 100 80 74 76 88 93 93 88
91 91 92 85 71 67 76 81 83 76 71 76 76 87 86 74 89 92 100 99 100 80 79 79 91 89 92
84 88 80 74 71 69 70 72 72 70 71 72 68 82 92 79 56 88 81 99 100 100 82 79 81 88 92
87 82 78 76 73 69 66 67 68 68 69 78 70 71 82 92 66 83 79 79 100 100 100 87 83 86 87
82 90 96 97 97 97 94 89 81 77 79 80 77 76 77 85 87 85 74 69 79 100 100 100 100 98 90
86 79 72 72 68 66 75 84 82 82 71 72 73 77 89 82 74 76 92 96 89 98 100 100 100 100 100
83 83 83 83 80 79 78 76 73 72 65 65 72 82 78 77 75 82 87 85 92 95 100 100 100 100 100
73 77 79 80 88 96 93 88 83 81 76 74 75 76 75 77 78 78 72 83 96 80 88 100 100 100 100
76 74 74 76 83 88 85 92 96 96 89 87 86 85 86 85 82 75 73 77 90 81 69 96 100 100 100
85 86 88 87 83 78 77 82 86 81 80 87 98 90 83 78 79 79 79 86 88 94 93 86 93 100 100
85 87 86 85 84 82 85 86 82 79 78 74 74 80 84 83 80 76 80 82 81 89 92 88 76 93 100
88 89 89 88 87 87 88 89 87 80 78 77 75 76 86 90 88 85 81 79 78 90 100 98 79 83 98
90 89 88 88 84 88 88 90 89 84 77 73 75 81 91 89 67 83 87 80 79 83 89 98 87 89 95
Wind_Speed
33 40 39 37 40 34 36 41 42 38 40 39 39 41 34 48 58 60 58 60 59 58 57 55 54 51 50
29 35 40 36 34 38 39 39 41 40 39 39 43 49 51 35 52 62 62 60 63 62 61 57 56 54 53
31 29 38 37 37 34 33 34 36 36 34 28 33 33 39 43 39 58 64 63 64 65 65 61 60 57 56
32 30 28 39 35 31 31 27 29 31 37 36 39 49 43 41 43 57 58 64 64 66 68 66 63 62 60
28 28 26 24 29 27 33 34 32 30 32 29 25 27 36 40 31 49 57 61 66 67 68 69 67 66 63
31 28 28 32 37 35 31 27 14 20 22 34 32 34 35 44 44 38 40 62 65 69 69 70 71 68 66
36 35 34 33 33 38 36 33 32 34 32 37 33 36 35 38 49 46 47 42 64 66 69 71 72 72 69
39 42 39 38 36 36 42 39 38 37 31 27 29 36 33 39 46 43 44 47 49 63 66 70 73 74 72
40 43 44 43 42 37 33 29 23 30 24 31 28 30 30 37 40 39 40 47 47 55 64 68 69 71 73
38 40 41 42 41 41 35 32 29 23 29 29 31 31 11 19 21 21 24 32 31 39 63 65 68 65 59
41 43 40 37 38 38 39 39 32 33 36 33 31 27 30 31 37 36 29 41 40 30 55 64 67 66 53
33 33 31 31 33 33 36 40 41 45 40 35 32 29 29 26 23 29 28 36 35 35 39 49 64 68 66
31 33 33 33 32 31 32 35 41 45 42 41 39 35 32 32 27 29 30 31 29 31 36 36 39 47 52
30 30 31 30 30 30 30 31 31 39 38 37 37 37 37 40 36 35 31 21 16 23 25 35 36 44 47
30 30 30 30 31 29 29 29 30 32 33 33 36 40 42 43 37 37 34 35 34 35 27 33 37 36 46
30 30 29 29 29 29 29 29 29 31 31 33 30 30 32 40 47 40 35 37 36 28 23 26 31 40 39
32 32 31 31 32 30 29 29 30 32 35 33 30 26 15 17 33 43 41 39 33 30 31 28 27 36 33
Wind_Direction
284 293 296 298 300 300 303 304 303 302 297 299 299 300 290 255 244 238 233 230 227 225 220 222 222 223 219
284 288 291 294 296 297 296 295 295 296 297 300 295 293 288 286 249 238 234 233 230 226 222 222 220 223 223
282 281 283 289 293 291 292 293 293 297 296 297 296 294 293 289 274 243 237 233 233 229 224 224 225 224 223
273 275 273 283 282 285 290 291 294 297 297 296 294 287 293 292 283 242 239 237 234 232 229 225 225 224 224
272 275 274 268 278 280 284 287 288 290 291 293 290 291 283 286 314 248 245 240 238 234 231 227 226 226 225
276 277 277 267 267 280 281 281 282 285 292 298 301 294 296 281 291 298 276 242 237 235 232 230 225 225 226
276 275 277 276 279 283 280 280 282 285 290 287 289 290 292 297 285 286 283 271 234 231 233 231 229 226 227
266 268 268 270 267 265 272 277 278 277 273 273 283 277 285 285 286 283 281 282 250 231 229 233 231 228 227
277 274 273 269 263 258 256 265 268 267 268 267 277 283 286 281 278 278 284 286 274 237 229 227 229 230 228
275 273 270 268 267 266 269 272 276 282 272 267 274 279 284 285 283 271 274 268 286 275 236 227 227 221 222
272 268 266 263 260 255 250 252 262 264 267 262 264 265 268 278 284 287 291 291 288 312 234 231 227 221 219
284 280 278 272 267 260 253 250 251 254 261 258 259 256 260 267 272 280 281 281 284 294 298 233 226 226 222
278 277 275 275 275 269 262 260 258 259 260 255 252 255 255 262 270 273 282 276 275 270 279 298 223 217 218
277 279 280 276 270 268 267 263 263 265 261 257 252 252 256 257 258 263 260 262 281 280 281 279 298 219 216
278 277 276 274 270 268 262 260 255 260 263 257 253 253 251 253 257 254 261 262 262 266 273 271 275 291 218
279 275 274 272 271 267 261 254 254 255 257 257 254 253 255 251 243 252 250 253 260 265 255 251 267 270 272
278 276 275 273 271 267 262 256 252 251 252 254 251 245 248 251 250 237 243 247 248 246 247 246 248 263 283